Flag for Canada Weather past 2 weeks in Whistler, British Columbia, Canada

Now
53 °F

Cool.


Feels Like: 51 °F
Forecast: 43 / 49 °F
Wind: 5 mph from Southeast

Location: Squamish Airport

Current Time: Oct 22, 2014 at 12:59:22 AM

Latest Report: Oct 22, 2014 at 12:00 AM


Visibility: N/A

Pressure: 29.57 "Hg

Humidity: 96%

Dew point: 51 °F

Location of WhistlerLocation

Historic Weather in Whistler — Graph

°F

Whistler temperature yesterday

Maximum temperature yesterday: 55 °F (at 12:00 PM)
Minimum temperature yesterday: 49 °F (at 2:00 AM)
Average temperature yesterday: 52 °F

Past Weeks' High & Low Weather Summary

 TemperatureHumidityPressure
High71 °F (Oct 7, 1:00 PM)100% (Oct 10, 6:00 AM)30.19 "Hg (Oct 10, 6:00 AM)
Low46 °F (Oct 10, 6:00 AM)57% (Oct 9, 2:00 PM)29.52 "Hg (Oct 15, 4:00 AM)
Average54 °F93%29.85 "Hg
* Reported Oct 6 11:00 PM — Oct 21 11:00 PM, Whistler, Weather by CustomWeather, © 2014

Note: Actual official high and low records may vary slightly from our data, if they occured in-between our weather recording intervals... More about our weather records

Advertising

Whistler weather history for previous 24 hours

 ConditionsComfort  
Time TempWeatherWind HumidityBarometerVisibility
11:00 PM
Oct 21
53 °FCool.6 mph96%29.61 "HgN/A
10:00 PM52 °FCool.5 mph97%29.64 "HgN/A
9:00 PM52 °FCool.2 mph97%29.66 "HgN/A
8:00 PM52 °FCool.5 mph96%29.70 "HgN/A
7:00 PM52 °FCool.5 mph97%29.73 "HgN/A
6:00 PM52 °FCool.6 mph96%29.75 "HgN/A
5:00 PM51 °FCool.6 mph100%29.75 "HgN/A
4:00 PM53 °FCool.5 mph95%29.77 "HgN/A
3:00 PM53 °FCool.3 mph94%29.78 "HgN/A
2:00 PM54 °FCool.6 mph89%29.78 "HgN/A
1:00 PM55 °FCool.6 mph88%29.80 "HgN/A
12:00 PM55 °FCool.7 mph88%29.80 "HgN/A
11:00 AM54 °FCool.7 mph93%29.80 "HgN/A
10:00 AM52 °FCool.1 mph97%29.79 "HgN/A
9:00 AM51 °FCool.1 mph97%29.78 "HgN/A
8:00 AM49 °FCool.1 mph100%29.78 "HgN/A
7:00 AM51 °FCool.2 mph98%29.75 "HgN/A
6:00 AM51 °FCool.1 mph98%29.74 "HgN/A
5:00 AM51 °FCool.No wind98%29.74 "HgN/A
4:00 AM51 °FCool.1 mph98%29.73 "HgN/A
3:00 AM51 °FCool.No wind98%29.73 "HgN/A
2:00 AM49 °FCool.No wind100%29.73 "HgN/A
1:00 AM51 °FCool.No wind97%29.74 "HgN/A
12:00 AM52 °FCool.1 mph91%29.73 "HgN/A
Weather by CustomWeather, © 2014

See weather overviewHow to use our weather pages